Home > Weather > St. Peter Port > Past weeks

Flag for Guernsey Past Weather in St. Peter Port, Guernsey — Yesterday and Last 2 Weeks

Now
64 °F

Rain. Fog.


Feels Like: 64 °F
Forecast: 61 / 67 °F
Wind: 12 mph from Southwest

Location: Guernsey Airport

Current Time: Jul 24, 2016 at 11:47:43 AM

Latest Report: Jul 24, 2016 at 11:20 AM


Visibility: 6 mi

Pressure: 30.18 "Hg

Humidity: 88%

Dew Point: 61 °F

Location of St. Peter PortLocation

Past Weather in St. Peter Port — Graph

°F

St. Peter Port Temperature Yesterday

Maximum temperature yesterday: 68 °F (at 11:50 AM)
Minimum temperature yesterday: 59 °F (at 3:50 AM)
Average temperature yesterday: 64 °F

High & Low Weather Summary for the Past Weeks

 TemperatureHumidityPressure
High90 °F (Jul 19, 5:20 PM)100% (Jul 10, 5:20 AM)30.39 "Hg (Jul 10, 5:20 AM)
Low54 °F (Jul 12, 5:50 AM)36% (Jul 19, 6:50 PM)29.80 "Hg (Jul 20, 3:50 AM)
Average64 °F78%30.11 "Hg
* Reported Jul 9 10:20 AM — Jul 24 10:20 AM, St. Peter Port, Weather by CustomWeather, © 2016

Note: Actual official high and low records may vary slightly from our data, if they occured in-between our weather recording intervals... More about our weather records

Advertising

St. Peter Port Weather History for the Previous 24 Hours

Scroll right to see more
 ConditionsComfort  
Time TempWeatherWind HumidityBarometerVisibility
10:20 AM
Sun, Jul 24
63 °FFog.10 mph94%30.15 "Hg1 mi
9:50 AM61 °FFog.10 mph100%30.15 "Hg1 mi
9:20 AM61 °FFog.9 mph100%30.15 "Hg1 mi
8:50 AM61 °FFog.10 mph100%30.15 "Hg0 mi
8:20 AM61 °FFog.9 mph100%30.15 "Hg1 mi
7:50 AM61 °FFog.9 mph100%30.15 "Hg1 mi
7:20 AM61 °FFog.9 mph100%30.15 "Hg1 mi
6:50 AM61 °FFog.9 mph100%30.15 "Hg1 mi
6:20 AM61 °FFog.8 mph100%30.15 "Hg0 mi
5:50 AM61 °FFog.7 mph100%30.15 "Hg0 mi
5:20 AM61 °FFog.6 mph100%30.15 "Hg0 mi
4:50 AM61 °FFog.6 mph100%30.15 "Hg1 mi
4:20 AM61 °FFog.8 mph100%30.15 "Hg1 mi
3:50 AM61 °FFog.8 mph100%30.15 "Hg1 mi
10:50 PM
Sat, Jul 23
59 °FClear.8 mph94%30.18 "Hg10 mi
10:20 PM59 °FClear.7 mph94%30.18 "Hg10 mi
9:50 PM61 °FSunny.7 mph88%30.18 "Hg10 mi
9:20 PM61 °FSunny.8 mph88%30.18 "Hg10 mi
8:50 PM61 °FSunny.9 mph83%30.18 "Hg10 mi
8:20 PM63 °FSunny.10 mph83%30.18 "Hg10 mi
7:50 PM63 °FSunny.10 mph83%30.18 "Hg10 mi
7:20 PM64 °FPassing clouds.13 mph73%30.18 "HgN/A
6:50 PM64 °FPassing clouds.12 mph73%30.18 "HgN/A
6:20 PM66 °FPassing clouds.10 mph64%30.18 "HgN/A
5:50 PM66 °FPassing clouds.9 mph68%30.18 "HgN/A
5:20 PM66 °FPassing clouds.12 mph64%30.18 "HgN/A
4:50 PM66 °FPassing clouds.10 mph64%30.18 "HgN/A
4:20 PM66 °FPassing clouds.9 mph68%30.18 "HgN/A
3:50 PM64 °FPassing clouds.8 mph78%30.21 "HgN/A
3:20 PM64 °FScattered clouds.8 mph78%30.21 "HgN/A
2:50 PM68 °FPassing clouds.7 mph64%30.21 "HgN/A
2:20 PM66 °FPartly sunny.8 mph73%30.21 "HgN/A
1:50 PM68 °FPartly sunny.12 mph69%30.21 "HgN/A
1:20 PM68 °FScattered clouds.10 mph64%30.21 "HgN/A
12:50 PM68 °FPartly sunny.13 mph64%30.21 "HgN/A
12:20 PM68 °FPartly sunny.12 mph69%30.21 "HgN/A
11:50 AM68 °FPartly sunny.12 mph64%30.21 "HgN/A
11:20 AM66 °FPartly sunny.13 mph73%30.21 "HgN/A
Weather by CustomWeather, © 2016

See weather overviewHow to use our weather pages